Stations météo

Publicité
Plaisance, Iles Maurice (61990): Température de l'air & dewpoint: 10.02.2019 11:00:00 - 16.02.2019 11:00:00 (MUT)Plaisance, Iles Maurice (61990): Vitesse du vent: 10.02.2019 11:00:00 - 16.02.2019 11:00:00 (MUT)Plaisance, Iles Maurice (61990): Direction du vent: 10.02.2019 11:00:00 - 16.02.2019 11:00:00 (MUT)Plaisance, Iles Maurice (61990): reduced air pressure: 10.02.2019 11:00:00 - 16.02.2019 11:00:00 (MUT)Plaisance, Iles Maurice (61990): visibility: 10.02.2019 11:00:00 - 16.02.2019 11:00:00 (MUT)
Date & Time tt [°C] td [°C] ff [km/h] ff [knt] dd ppp [hPa] vv [km]
16.02.2019 11:00:00 29,0 25,0 18 10 E - 10
16.02.2019 10:00:00 27,6 25,1 15 8 SE 1015,5 8
16.02.2019 09:00:00 26,0 25,0 9 5 SE - 7
16.02.2019 08:00:00 26,0 23,0 9 5 SE - 5
16.02.2019 07:00:00 24,0 23,3 21 11 SSE 1014,1 4,0
16.02.2019 06:00:00 24,0 23,0 9 5 WNW - 2,0
16.02.2019 05:00:00 24,0 23,0 11 6 WSW - 5
16.02.2019 04:00:00 24,4 23,2 9 5 SSE 1013,9 5
16.02.2019 03:00:00 26,0 22,0 2 1 S - 10
16.02.2019 02:00:00 26,0 22,0 4 2 S - 10
16.02.2019 01:00:00 26,0 21,0 5 3 S - 10
16.02.2019 00:00:00 26,0 21,0 5 3 S - 10
15.02.2019 23:00:00 26,0 21,0 5 3 SSE - 10
15.02.2019 22:00:00 26,5 21,1 5 3 SSE 1015,0 10
15.02.2019 21:00:00 27,0 22,0 8 4 S - 10
15.02.2019 20:00:00 27,0 21,0 9 5 S - 10
15.02.2019 19:00:00 27,2 21,1 8 4 S 1013,5 10
15.02.2019 18:00:00 28,0 20,0 11 6 S - 10
15.02.2019 17:00:00 29,0 21,0 13 7 S - 10
15.02.2019 16:00:00 29,3 21,5 15 8 SSW 1011,9 10
15.02.2019 15:00:00 29,0 22,0 18 10 SW - 10
15.02.2019 14:00:00 29,0 21,0 16 9 SSW - 10
15.02.2019 13:00:00 29,2 21,3 16 9 SSW 1012,9 10
15.02.2019 12:00:00 29,0 22,0 9 5 S - 10
15.02.2019 11:00:00 29,0 21,0 11 6 SSW - 10
15.02.2019 10:00:00 28,6 21,1 11 6 SSW 1013,9 10
15.02.2019 09:00:00 28,0 21,0 8 4 S - 10
15.02.2019 08:00:00 26,0 22,0 4 2 - - 10
15.02.2019 07:00:00 22,4 20,3 8 4 NW 1012,9 10
15.02.2019 06:00:00 22,0 20,0 8 4 NNW - 10
15.02.2019 05:00:00 23,0 20,0 11 6 NW - 10
15.02.2019 04:00:00 22,6 20,2 9 5 NW 1012,2 10
15.02.2019 03:00:00 23,0 20,0 11 6 NW - 10
15.02.2019 02:00:00 23,0 20,0 5 3 NW - 10
15.02.2019 01:00:00 24,0 21,0 5 3 NW - 10
15.02.2019 00:00:00 25,0 21,0 8 4 NW - 10
14.02.2019 23:00:00 26,0 20,0 5 3 S - 10
14.02.2019 22:00:00 25,3 20,3 4 2 - 1014,9 10
14.02.2019 21:00:00 26,0 19,0 8 4 S - 10
14.02.2019 20:00:00 26,0 20,0 5 3 SSW - 10
14.02.2019 19:00:00 27,1 19,8 9 5 SSW 1013,2 10
14.02.2019 18:00:00 28,0 20,0 13 7 SSW - 10
14.02.2019 17:00:00 28,0 21,0 11 6 S - 10
14.02.2019 16:00:00 29,2 20,0 11 6 ESE 1011,9 10
14.02.2019 15:00:00 29,0 20,0 11 6 S - 10
14.02.2019 14:00:00 29,0 19,0 13 7 SE - 10
14.02.2019 13:00:00 29,2 19,1 18 10 SSE 1013,2 10
14.02.2019 12:00:00 29,0 19,0 15 8 SSE - 10
14.02.2019 11:00:00 29,0 19,0 15 8 SSE - 10
14.02.2019 10:00:00 28,7 18,5 18 10 S 1014,7 10
14.02.2019 09:00:00 29,0 19,0 13 7 S - 10
14.02.2019 08:00:00 27,0 18,0 15 8 S - 10
14.02.2019 07:00:00 25,5 20,2 4 2 SSE 1014,7 10
14.02.2019 06:00:00 25,0 20,0 8 4 S - 10
14.02.2019 05:00:00 25,0 20,0 8 4 SSE - 10
14.02.2019 04:00:00 25,1 20,3 5 3 SSE 1014,4 10
14.02.2019 03:00:00 25,0 21,0 5 3 SSE - 10
14.02.2019 02:00:00 26,0 20,0 5 3 SE - 10
14.02.2019 01:00:00 26,0 21,0 11 6 SE - 10
14.02.2019 00:00:00 26,0 21,0 8 4 SE - 10
13.02.2019 23:00:00 26,0 21,0 5 3 SE - 10
13.02.2019 22:00:00 26,3 21,4 9 5 SE 1016,8 10
13.02.2019 21:00:00 27,0 21,0 9 5 SE - 10
13.02.2019 20:00:00 27,0 21,0 8 4 SE - 10
13.02.2019 19:00:00 27,5 21,3 9 5 SSE 1016,1 10
13.02.2019 18:00:00 28,0 22,0 13 7 ESE - 10
13.02.2019 17:00:00 29,0 22,0 15 8 ESE - 10
13.02.2019 16:00:00 29,0 21,5 9 5 SE 1014,7 10
13.02.2019 15:00:00 29,0 21,0 9 5 ESE - 10
13.02.2019 14:00:00 30,0 21,0 13 7 SE - 10
13.02.2019 13:00:00 29,8 21,3 13 7 SE 1015,6 10
13.02.2019 12:00:00 30,0 21,0 13 7 ESE - 10
13.02.2019 11:00:00 29,0 22,0 15 8 ESE - 10
13.02.2019 10:00:00 29,0 20,7 13 7 ESE 1016,6 10
13.02.2019 09:00:00 29,0 21,0 11 6 ESE - 10
13.02.2019 08:00:00 27,0 20,0 9 5 SE - 10
13.02.2019 07:00:00 24,0 19,5 0 0 N 1016,4 10
13.02.2019 06:00:00 23,0 19,0 0 0 N - 10
13.02.2019 05:00:00 23,0 20,0 0 0 N - 10
13.02.2019 04:00:00 24,7 19,6 5 3 SE 1015,3 10
13.02.2019 03:00:00 25,0 20,0 5 3 SSE - 10
13.02.2019 02:00:00 26,0 20,0 5 3 SE - 10
13.02.2019 01:00:00 26,0 20,0 8 4 SE - 10
13.02.2019 00:00:00 26,0 21,0 9 5 SE - 10
12.02.2019 23:00:00 26,0 21,0 9 5 ESE - 10
12.02.2019 22:00:00 26,3 20,8 9 5 SE 1016,7 10
12.02.2019 21:00:00 27,0 21,0 5 3 ESE - 10
12.02.2019 20:00:00 27,0 20,0 13 7 ESE - 10
12.02.2019 19:00:00 27,5 20,1 13 7 SE 1015,1 10
12.02.2019 18:00:00 29,0 21,0 9 5 SE - 10
12.02.2019 17:00:00 29,0 21,0 15 8 SSE - 10
12.02.2019 16:00:00 29,4 20,9 11 6 ESE 1013,8 18
12.02.2019 15:00:00 30,0 22,0 15 8 ESE - 10
12.02.2019 14:00:00 30,0 22,0 15 8 ESE - 10
12.02.2019 13:00:00 29,4 21,8 16 9 ESE 1014,5 10
12.02.2019 12:00:00 30,0 22,0 16 9 ESE - 10
12.02.2019 11:00:00 29,0 22,0 16 9 ESE - 10
12.02.2019 10:00:00 29,4 21,2 11 6 ESE 1015,1 10
12.02.2019 09:00:00 29,0 20,0 8 4 ESE - 10
12.02.2019 08:00:00 28,0 21,0 8 4 SE - 10
12.02.2019 07:00:00 24,6 22,2 0 0 N 1014,7 10
12.02.2019 06:00:00 23,0 21,0 0 0 N - 10
12.02.2019 05:00:00 23,0 21,0 8 4 NNW - 10
12.02.2019 04:00:00 22,8 20,7 9 5 NNW 1013,3 10
12.02.2019 03:00:00 24,0 21,0 0 0 N - 10
12.02.2019 02:00:00 25,0 22,0 5 3 NNW - 10
12.02.2019 01:00:00 25,0 22,0 0 0 N - 10
12.02.2019 00:00:00 25,0 21,0 0 0 N - 10
11.02.2019 23:00:00 26,0 21,0 5 3 ESE - 10
11.02.2019 22:00:00 25,6 21,5 5 3 ESE 1014,6 10
11.02.2019 21:00:00 26,0 22,0 5 3 SE - 10
11.02.2019 20:00:00 26,0 20,0 0 0 N - 10
11.02.2019 19:00:00 26,8 20,1 5 3 SSE 1013,4 10
11.02.2019 18:00:00 28,0 20,0 9 5 SSE - 10
11.02.2019 17:00:00 29,0 20,0 13 7 SSE - 10
11.02.2019 16:00:00 29,4 19,4 9 5 SSE 1012,1 10
11.02.2019 15:00:00 29,0 20,0 13 7 SSE - 10
11.02.2019 14:00:00 29,0 20,0 16 9 S - 10
11.02.2019 13:00:00 29,1 20,5 13 7 SE 1012,9 10
11.02.2019 12:00:00 28,0 20,0 15 8 SE - 10
11.02.2019 11:00:00 28,0 21,0 15 8 ESE - 10
11.02.2019 10:00:00 28,0 21,3 15 8 SSE 1013,5 8
11.02.2019 09:00:00 26,0 22,0 11 6 SSE - 7
11.02.2019 08:00:00 24,0 22,0 9 5 N - 3,0
11.02.2019 07:00:00 24,2 21,7 15 8 NW 1013,1 3,0
11.02.2019 06:00:00 24,0 22,0 5 3 WNW - 10
11.02.2019 05:00:00 25,0 21,0 4 2 NNW - 10
11.02.2019 04:00:00 24,8 21,3 0 0 N 1012,2 10
11.02.2019 03:00:00 26,0 21,0 5 3 SE - 10
11.02.2019 02:00:00 26,0 21,0 5 3 SSE - 10
11.02.2019 01:00:00 26,0 21,0 5 3 SE - 10
11.02.2019 00:00:00 26,0 20,0 8 4 SSE - 10
10.02.2019 23:00:00 26,0 20,0 9 5 SSE - 10
10.02.2019 22:00:00 25,7 20,4 9 5 SE 1014,2 20
10.02.2019 21:00:00 26,0 21,0 13 7 SE - 10
10.02.2019 20:00:00 25,0 21,0 16 9 SSE - 10
10.02.2019 19:00:00 25,0 21,7 13 7 SSE 1013,3 6
10.02.2019 18:00:00 27,0 22,0 16 9 SSE - 10
10.02.2019 17:00:00 28,0 21,0 22 12 S - 10
10.02.2019 16:00:00 28,6 21,1 24 13 S 1011,5 10
10.02.2019 15:00:00 29,0 21,0 24 13 S - 10
10.02.2019 14:00:00 30,0 21,0 26 14 S - 10
10.02.2019 13:00:00 28,9 20,3 28 15 SSW 1012,4 10
10.02.2019 12:00:00 29,0 21,0 18 10 S - 10
10.02.2019 11:00:00 29,0 20,0 22 12 S - 10

tt = Température de l'air
td = dewpoint
ff = Vitesse du vent
dd = Direction du vent
ppp = reduced air pressure
vv = visibility

stations d'obs. à proximité